• In Deutschland
  • Länderverzeichnis
  • Für 7 Tage
  • Wassertemperatur
  • Satellitenkarten
  • Wetterkarte
  • Widgets
  • user-avatar
    Anmelden

    Stündliche Wetter Eisenstadt

    Heute, 16 Oktober, Dienstag

    Zeit Temperatur Niederschläge Wind Luftdruck Luftfeuchtigkeit
    00:00 +10°C° 0 mm 2 m/S 725 mmHg 59%
    01:00 +9°C° 0 mm 2 m/S 725 mmHg 60%
    02:00 +9°C° 0 mm 2 m/S 725 mmHg 62%
    03:00 +9°C° 0 mm 2 m/S 725 mmHg 63%
    04:00 +9°C° 0 mm 2 m/S 725 mmHg 65%
    05:00 +9°C° 0 mm 2 m/S 725 mmHg 66%
    06:00 +9°C° 0 mm 2 m/S 725 mmHg 67%
    07:00 +9°C° 0 mm 2 m/S 725 mmHg 68%
    08:00 +12°C° 0 mm 2 m/S 726 mmHg 62%
    09:00 +15°C° 0 mm 2 m/S 726 mmHg 56%
    10:00 +17°C° 0 mm 2 m/S 726 mmHg 50%
    11:00 +18°C° 0 mm 3 m/S 726 mmHg 48%
    12:00 +19°C° 0 mm 3 m/S 726 mmHg 47%
    13:00 +20°C° 0 mm 3 m/S 726 mmHg 45%
    14:00 +19°C° 0 mm 3 m/S 726 mmHg 48%
    15:00 +19°C° 0 mm 3 m/S 725 mmHg 51%
    16:00 +18°C° 0 mm 3 m/S 725 mmHg 54%
    17:00 +16°C° 0 mm 2 m/S 725 mmHg 60%
    18:00 +15°C° 0 mm 2 m/S 725 mmHg 66%
    19:00 +13°C° 0 mm 2 m/S 725 mmHg 71%
    20:00 +13°C° 0 mm 2 m/S 725 mmHg 74%
    21:00 +12°C° 0 mm 1 m/S 725 mmHg 76%
    22:00 +12°C° 0 mm 1 m/S 726 mmHg 78%
    23:00 +12°C° 0 mm 1 m/S 726 mmHg 79%

    Morgen, 17 Oktober, Mittwoch

    Zeit Temperatur Niederschläge Wind Luftdruck Luftfeuchtigkeit
    00:00 +11°C° 0 mm 1 m/S 725 mmHg 80%
    01:00 +11°C° 0 mm 1 m/S 725 mmHg 81%
    02:00 +11°C° 0 mm 1 m/S 725 mmHg 81%
    03:00 +11°C° 0 mm 1 m/S 725 mmHg 81%
    04:00 +11°C° 0 mm 1 m/S 725 mmHg 81%
    05:00 +11°C° 0 mm 1 m/S 725 mmHg 80%
    06:00 +11°C° 0 mm 1 m/S 725 mmHg 80%
    07:00 +12°C° 0 mm 1 m/S 725 mmHg 79%
    08:00 +13°C° 0 mm 1 m/S 725 mmHg 72%
    09:00 +15°C° 0 mm 1 m/S 726 mmHg 65%
    10:00 +18°C° 0 mm 1 m/S 726 mmHg 58%
    11:00 +18°C° 0.1 mm 2 m/S 725 mmHg 58%
    12:00 +18°C° 0.1 mm 2 m/S 725 mmHg 57%
    13:00 +19°C° 0.1 mm 2 m/S 725 mmHg 57%
    14:00 +18°C° 0.1 mm 2 m/S 725 mmHg 62%
    15:00 +17°C° 0.1 mm 2 m/S 724 mmHg 67%
    16:00 +18°C° 0.1 mm 1 m/S 724 mmHg 71%
    17:00 +16°C° 0.1 mm 1 m/S 724 mmHg 74%
    18:00 +15°C° 0.1 mm 1 m/S 724 mmHg 76%
    19:00 +14°C° 0.1 mm 1 m/S 724 mmHg 79%
    20:00 +14°C° 0 mm 1 m/S 724 mmHg 77%
    21:00 +14°C° 0 mm 1 m/S 724 mmHg 75%
    22:00 +14°C° 0 mm 1 m/S 724 mmHg 74%
    23:00 +14°C° 0 mm 1 m/S 724 mmHg 72%

    übermorgen, 18 Oktober, Donnerstag

    Zeit Temperatur Niederschläge Wind Luftdruck Luftfeuchtigkeit
    00:00 +14°C° 0 mm 1 m/S 724 mmHg 71%
    01:00 +13°C° 0 mm 1 m/S 724 mmHg 69%
    02:00 +13°C° 0.1 mm 1 m/S 724 mmHg 70%
    03:00 +13°C° 0.1 mm 1 m/S 724 mmHg 70%
    04:00 +12°C° 0.1 mm 1 m/S 724 mmHg 70%
    05:00 +12°C° 0.4 mm 1 m/S 724 mmHg 70%
    06:00 +12°C° 0.4 mm 1 m/S 724 mmHg 71%
    07:00 +12°C° 0.4 mm 1 m/S 724 mmHg 72%
    08:00 +13°C° 0.2 mm 1 m/S 724 mmHg 70%
    09:00 +14°C° 0.2 mm 1 m/S 724 mmHg 68%
    10:00 +15°C° 0.2 mm 1 m/S 724 mmHg 66%
    11:00 +15°C° 0 mm 1 m/S 724 mmHg 63%
    12:00 +16°C° 0 mm 1 m/S 724 mmHg 60%
    13:00 +16°C° 0 mm 1 m/S 724 mmHg 57%
    14:00 +16°C° 0.1 mm 1 m/S 724 mmHg 60%
    15:00 +16°C° 0.1 mm 1 m/S 723 mmHg 63%
    16:00 +15°C° 0.1 mm 1 m/S 723 mmHg 66%
    17:00 +14°C° 0.1 mm 1 m/S 723 mmHg 68%
    18:00 +14°C° 0.1 mm 1 m/S 724 mmHg 70%
    19:00 +13°C° 0.1 mm 1 m/S 724 mmHg 73%
    20:00 +13°C° 0 mm 1 m/S 724 mmHg 74%
    21:00 +12°C° 0 mm 1 m/S 724 mmHg 75%
    22:00 +12°C° 0 mm 1 m/S 724 mmHg 76%
    23:00 +12°C° 0 mm 1 m/S 724 mmHg 77%

    19 Oktober, Freitag

    Zeit Temperatur Niederschläge Wind Luftdruck Luftfeuchtigkeit
    00:00 +12°C° 0 mm 1 m/S 724 mmHg 78%
    01:00 +11°C° 0 mm 1 m/S 724 mmHg 79%
    02:00 +11°C° 0 mm 1 m/S 724 mmHg 80%
    03:00 +10°C° 0 mm 2 m/S 724 mmHg 80%
    04:00 +9°C° 0 mm 2 m/S 724 mmHg 81%
    05:00 +9°C° 0 mm 2 m/S 725 mmHg 81%
    06:00 +9°C° 0 mm 2 m/S 725 mmHg 81%
    07:00 +9°C° 0 mm 2 m/S 725 mmHg 81%
    08:00 +12°C° 0 mm 2 m/S 725 mmHg 72%
    09:00 +14°C° 0 mm 2 m/S 726 mmHg 64%
    10:00 +16°C° 0 mm 2 m/S 726 mmHg 56%
    11:00 +17°C° 0 mm 2 m/S 726 mmHg 53%
    12:00 +18°C° 0 mm 2 m/S 726 mmHg 50%
    13:00 +19°C° 0 mm 2 m/S 726 mmHg 47%
    14:00 +18°C° 0 mm 2 m/S 726 mmHg 50%
    15:00 +18°C° 0 mm 2 m/S 726 mmHg 52%
    16:00 +17°C° 0 mm 2 m/S 726 mmHg 55%
    17:00 +16°C° 0 mm 2 m/S 726 mmHg 60%
    18:00 +14°C° 0 mm 2 m/S 726 mmHg 65%
    19:00 +13°C° 0 mm 2 m/S 727 mmHg 70%
    20:00 +12°C° 0 mm 2 m/S 727 mmHg 73%
    21:00 +12°C° 0 mm 2 m/S 727 mmHg 75%
    22:00 +10°C° 0 mm 2 m/S 727 mmHg 78%
    23:00 +10°C° 0 mm 2 m/S 727 mmHg 80%

    20 Oktober, Samstag

    Zeit Temperatur Niederschläge Wind Luftdruck Luftfeuchtigkeit
    00:00 +10°C° 0 mm 2 m/S 728 mmHg 82%
    01:00 +10°C° 0 mm 2 m/S 728 mmHg 85%
    02:00 +9°C° 0 mm 2 m/S 728 mmHg 86%
    03:00 +9°C° 0 mm 2 m/S 728 mmHg 87%
    04:00 +9°C° 0 mm 2 m/S 728 mmHg 88%
    05:00 +9°C° 0 mm 3 m/S 728 mmHg 89%
    06:00 +9°C° 0 mm 3 m/S 728 mmHg 89%
    07:00 +9°C° 0 mm 3 m/S 729 mmHg 89%
    08:00 +11°C° 0 mm 3 m/S 729 mmHg 81%
    09:00 +12°C° 0 mm 3 m/S 729 mmHg 72%
    10:00 +14°C° 0 mm 4 m/S 729 mmHg 64%
    11:00 +15°C° 0 mm 4 m/S 729 mmHg 62%
    12:00 +17°C° 0 mm 4 m/S 729 mmHg 59%
    13:00 +17°C° 0 mm 4 m/S 729 mmHg 56%
    14:00 +17°C° 0 mm 4 m/S 729 mmHg 58%
    15:00 +15°C° 0 mm 4 m/S 729 mmHg 60%
    16:00 +15°C° 0 mm 4 m/S 729 mmHg 61%
    17:00 +13°C° 0 mm 3 m/S 729 mmHg 66%
    18:00 +12°C° 0 mm 3 m/S 730 mmHg 71%
    19:00 +10°C° 0 mm 2 m/S 730 mmHg 76%
    20:00 +10°C° 0 mm 3 m/S 730 mmHg 77%
    21:00 +9°C° 0 mm 3 m/S 731 mmHg 78%
    22:00 +9°C° 0 mm 3 m/S 731 mmHg 79%
    23:00 +8°C° 0 mm 3 m/S 731 mmHg 79%

    21 Oktober, Sonntag

    Zeit Temperatur Niederschläge Wind Luftdruck Luftfeuchtigkeit
    00:00 +8°C° 0 mm 3 m/S 731 mmHg 78%
    01:00 +7°C° 0 mm 3 m/S 731 mmHg 78%
    02:00 +7°C° 0 mm 3 m/S 731 mmHg 77%
    03:00 +7°C° 0 mm 3 m/S 731 mmHg 76%
    04:00 +6°C° 0 mm 2 m/S 731 mmHg 76%
    05:00 +6°C° 0 mm 2 m/S 731 mmHg 74%
    06:00 +6°C° 0 mm 2 m/S 731 mmHg 73%
    07:00 +6°C° 0 mm 2 m/S 731 mmHg 71%
    08:00 +8°C° 0 mm 2 m/S 731 mmHg 62%
    09:00 +10°C° 0 mm 3 m/S 732 mmHg 53%
    10:00 +12°C° 0 mm 3 m/S 732 mmHg 44%
    11:00 +13°C° 0 mm 3 m/S 731 mmHg 41%
    12:00 +14°C° 0 mm 3 m/S 731 mmHg 38%
    13:00 +16°C° 0 mm 3 m/S 731 mmHg 35%
    14:00 +15°C° 0 mm 2 m/S 730 mmHg 38%
    15:00 +15°C° 0 mm 2 m/S 730 mmHg 41%
    16:00 +14°C° 0 mm 2 m/S 730 mmHg 44%
    17:00 +12°C° 0 mm 2 m/S 730 mmHg 48%
    18:00 +10°C° 0 mm 2 m/S 730 mmHg 52%
    19:00 +9°C° 0 mm 1 m/S 730 mmHg 56%
    20:00 +9°C° 0 mm 1 m/S 730 mmHg 56%
    21:00 +9°C° 0 mm 1 m/S 730 mmHg 57%
    22:00 +8°C° 0 mm 1 m/S 730 mmHg 57%
    23:00 +8°C° 0 mm 1 m/S 730 mmHg 57%
    Mehr zeigen